Time,TemperatureF,DewpointF,PressureIn,WindDirection,WindDirectionDegrees,WindSpeedMPH,WindSpeedGustMPH,Humidity,HourlyPrecipIn,Conditions,Clouds,dailyrainin,SoftwareType,DateUTC
2013-06-25 00:02:00,76.0,70.0,-100.00,North,10,3.0,5.0,83,-99.99,,,-99.99,,2013-06-25 04:02:00,
2013-06-25 00:34:00,75.0,70.0,-100.00,North,10,6.0,9.0,86,-99.99,,,-99.99,,2013-06-25 04:34:00,
2013-06-25 00:52:00,74.0,70.0,-100.00,North,10,7.0,11.0,86,-99.99,,,-99.99,,2013-06-25 04:52:00,
2013-06-25 01:01:00,74.0,70.0,-100.00,North,10,4.0,8.0,87,-99.99,,,-99.99,,2013-06-25 05:01:00,
2013-06-25 01:22:00,74.0,70.0,-100.00,North,10,3.0,6.0,87,-99.99,,,-99.99,,2013-06-25 05:22:00,
2013-06-25 01:32:00,74.0,71.0,-100.00,North,10,3.0,6.0,88,-99.99,,,-99.99,,2013-06-25 05:32:00,
2013-06-25 02:01:00,74.0,70.0,-100.00,North,10,3.0,4.0,88,-99.99,,,-99.99,,2013-06-25 06:01:00,
2013-06-25 02:34:00,73.0,70.0,-100.00,North,10,6.0,10.0,88,-99.99,,,-99.99,,2013-06-25 06:34:00,
2013-06-25 02:52:00,73.0,70.0,-100.00,North,10,5.0,9.0,88,-99.99,,,-99.99,,2013-06-25 06:52:00,
2013-06-25 03:02:00,73.0,70.0,-100.00,North,10,5.0,9.0,88,-99.99,,,-99.99,,2013-06-25 07:02:00,
2013-06-25 03:11:00,73.0,70.0,-100.00,North,10,3.0,8.0,88,-99.99,,,-99.99,,2013-06-25 07:11:00,
2013-06-25 03:22:00,73.0,70.0,-100.00,North,10,3.0,8.0,88,-99.99,,,-99.99,,2013-06-25 07:22:00,
2013-06-25 03:33:00,73.0,70.0,-100.00,North,10,3.0,5.0,88,-99.99,,,-99.99,,2013-06-25 07:33:00,
2013-06-25 03:43:00,73.0,69.0,-100.00,NNE,15,1.0,4.0,88,-99.99,,,-99.99,,2013-06-25 07:43:00,
2013-06-25 03:52:00,73.0,69.0,-100.00,NNE,15,1.0,4.0,88,-99.99,,,-99.99,,2013-06-25 07:52:00,
2013-06-25 04:22:00,73.0,69.0,-100.00,NNE,15,3.0,5.0,87,-99.99,,,-99.99,,2013-06-25 08:22:00,
2013-06-25 04:34:00,73.0,68.0,-100.00,NNE,20,4.0,8.0,85,-99.99,,,-99.99,,2013-06-25 08:34:00,
2013-06-25 04:53:00,73.0,68.0,-100.00,NNE,20,3.0,7.0,85,-99.99,,,-99.99,,2013-06-25 08:53:00,
2013-06-25 05:02:00,73.0,68.0,-100.00,NNE,15,2.0,4.0,85,-99.99,,,-99.99,,2013-06-25 09:02:00,
2013-06-25 05:22:00,73.0,68.0,-100.00,North,10,3.0,5.0,85,-99.99,,,-99.99,,2013-06-25 09:22:00,
2013-06-25 05:33:00,73.0,68.0,-100.00,North,10,3.0,5.0,85,-99.99,,,-99.99,,2013-06-25 09:33:00,
2013-06-25 05:53:00,73.0,68.0,-100.00,NNE,15,5.0,9.0,86,-99.99,,,-99.99,,2013-06-25 09:53:00,
2013-06-25 06:01:00,73.0,68.0,-100.00,NNE,15,4.0,8.0,86,-99.99,,,-99.99,,2013-06-25 10:01:00,
2013-06-25 06:33:00,73.0,69.0,-100.00,NNE,15,5.0,11.0,87,-99.99,,,-99.99,,2013-06-25 10:33:00,
2013-06-25 06:43:00,73.0,69.0,-100.00,North,10,6.0,11.0,88,-99.99,,,-99.99,,2013-06-25 10:43:00,
2013-06-25 06:52:00,73.0,69.0,-100.00,North,10,6.0,11.0,88,-99.99,,,-99.99,,2013-06-25 10:52:00,
2013-06-25 07:12:00,74.0,70.0,-100.00,NNE,15,8.0,12.0,88,-99.99,,,-99.99,,2013-06-25 11:12:00,
2013-06-25 07:22:00,74.0,70.0,-100.00,NNE,15,8.0,12.0,88,-99.99,,,-99.99,,2013-06-25 11:22:00,
2013-06-25 07:34:00,75.0,71.0,-100.00,North,10,9.0,13.0,88,-99.99,,,-99.99,,2013-06-25 11:34:00,
2013-06-25 07:52:00,75.0,71.0,-100.00,North,10,9.0,13.0,86,-99.99,,,-99.99,,2013-06-25 11:52:00,
2013-06-25 08:02:00,76.0,71.0,-100.00,North,10,7.0,14.0,85,-99.99,,,-99.99,,2013-06-25 12:02:00,
2013-06-25 08:33:00,78.0,70.0,-100.00,NNE,20,8.0,14.0,75,-99.99,,,-99.99,,2013-06-25 12:33:00,
2013-06-25 08:43:00,79.0,69.0,-100.00,NNE,20,11.0,15.0,72,-99.99,,,-99.99,,2013-06-25 12:43:00,
2013-06-25 08:55:00,79.0,69.0,-100.00,NNE,20,11.0,15.0,72,-99.99,,,-99.99,,2013-06-25 12:55:00,
2013-06-25 09:22:00,79.0,70.0,-100.00,North,5,10.0,14.0,75,-99.99,,,-99.99,,2013-06-25 13:22:00,
2013-06-25 09:53:00,82.0,68.0,-100.00,NNE,20,3.0,15.0,63,-99.99,,,-99.99,,2013-06-25 13:53:00,
2013-06-25 10:02:00,83.0,67.0,-100.00,NNE,15,11.0,16.0,59,-99.99,,,-99.99,,2013-06-25 14:02:00,
2013-06-25 10:23:00,83.0,67.0,-100.00,North,10,10.0,16.0,59,-99.99,,,-99.99,,2013-06-25 14:23:00,
2013-06-25 10:34:00,84.0,67.0,-100.00,North,10,11.0,16.0,56,-99.99,,,-99.99,,2013-06-25 14:34:00,
2013-06-25 10:43:00,84.0,67.0,-100.00,NNE,15,12.0,16.0,57,-99.99,,,-99.99,,2013-06-25 14:43:00,
2013-06-25 10:53:00,84.0,67.0,-100.00,NNE,15,12.0,16.0,57,-99.99,,,-99.99,,2013-06-25 14:53:00,
2013-06-25 11:02:00,84.0,67.0,-100.00,North,10,11.0,17.0,56,-99.99,,,-99.99,,2013-06-25 15:02:00,
2013-06-25 11:22:00,86.0,67.0,-100.00,North,10,5.0,15.0,53,-99.99,,,-99.99,,2013-06-25 15:22:00,
2013-06-25 11:32:00,87.0,66.0,-100.00,North,10,6.0,15.0,50,-99.99,,,-99.99,,2013-06-25 15:32:00,
2013-06-25 12:03:00,86.0,66.0,-100.00,North,10,12.0,17.0,51,-99.99,,,-99.99,,2013-06-25 16:03:00,
2013-06-25 12:23:00,88.0,65.0,-100.00,North,10,8.0,16.0,48,-99.99,,,-99.99,,2013-06-25 16:23:00,
2013-06-25 12:52:00,88.0,66.0,-100.00,North,10,8.0,19.0,48,-99.99,,,-99.99,,2013-06-25 16:52:00,
2013-06-25 13:01:00,88.0,66.0,-100.00,North,5,12.0,19.0,48,-99.99,,,-99.99,,2013-06-25 17:01:00,
2013-06-25 13:22:00,88.0,65.0,-100.00,North,5,11.0,18.0,46,-99.99,,,-99.99,,2013-06-25 17:22:00,
2013-06-25 13:34:00,90.0,65.0,-100.00,North,5,12.0,17.0,45,-99.99,,,-99.99,,2013-06-25 17:34:00,
2013-06-25 13:44:00,90.0,65.0,-100.00,North,5,10.0,15.0,44,-99.99,,,-99.99,,2013-06-25 17:44:00,
2013-06-25 13:53:00,90.0,65.0,-100.00,North,5,10.0,15.0,44,-99.99,,,-99.99,,2013-06-25 17:53:00,
2013-06-25 14:02:00,90.0,65.0,-100.00,North,5,9.0,16.0,43,-99.99,,,-99.99,,2013-06-25 18:02:00,
2013-06-25 14:12:00,90.0,65.0,-100.00,North,5,9.0,16.0,43,-99.99,,,-99.99,,2013-06-25 18:12:00,
2013-06-25 14:53:00,91.0,65.0,-100.00,North,5,6.0,17.0,43,-99.99,,,-99.99,,2013-06-25 18:53:00,
2013-06-25 15:01:00,89.0,66.0,-100.00,North,5,7.0,16.0,46,-99.99,,,-99.99,,2013-06-25 19:01:00,
2013-06-25 15:12:00,89.0,66.0,-100.00,North,5,7.0,16.0,46,-99.99,,,-99.99,,2013-06-25 19:12:00,
2013-06-25 15:23:00,89.0,66.0,-100.00,North,5,5.0,14.0,47,-99.99,,,-99.99,,2013-06-25 19:23:00,
2013-06-25 15:54:00,88.0,66.0,-100.00,NNE,15,9.0,14.0,49,-99.99,,,-99.99,,2013-06-25 19:54:00,
2013-06-25 16:33:00,87.0,67.0,-100.00,NNE,15,5.0,16.0,51,-99.99,,,-99.99,,2013-06-25 20:33:00,
2013-06-25 16:42:00,86.0,67.0,-100.00,North,5,7.0,15.0,53,-99.99,,,-99.99,,2013-06-25 20:42:00,
2013-06-25 16:52:00,86.0,67.0,-100.00,North,5,7.0,15.0,53,-99.99,,,-99.99,,2013-06-25 20:52:00,
2013-06-25 17:01:00,87.0,67.0,-100.00,North,5,8.0,17.0,52,-99.99,,,-99.99,,2013-06-25 21:01:00,
2013-06-25 17:11:00,86.0,67.0,-100.00,North,5,8.0,14.0,53,-99.99,,,-99.99,,2013-06-25 21:11:00,
2013-06-25 17:22:00,86.0,67.0,-100.00,North,5,8.0,14.0,53,-99.99,,,-99.99,,2013-06-25 21:22:00,
2013-06-25 17:34:00,85.0,67.0,-100.00,North,5,8.0,13.0,54,-99.99,,,-99.99,,2013-06-25 21:34:00,
2013-06-25 17:43:00,86.0,67.0,-100.00,North,5,7.0,14.0,54,-99.99,,,-99.99,,2013-06-25 21:43:00,
2013-06-25 18:01:00,85.0,67.0,-100.00,NNE,15,5.0,13.0,55,-99.99,,,-99.99,,2013-06-25 22:01:00,
2013-06-25 18:22:00,86.0,67.0,-100.00,North,5,5.0,12.0,53,-99.99,,,-99.99,,2013-06-25 22:22:00,
2013-06-25 18:34:00,86.0,67.0,-100.00,North,5,5.0,11.0,53,-99.99,,,-99.99,,2013-06-25 22:34:00,
2013-06-25 18:42:00,87.0,68.0,-100.00,North,5,3.0,7.0,53,-99.99,,,-99.99,,2013-06-25 22:42:00,
2013-06-25 19:01:00,89.0,66.0,-100.00,North,5,4.0,10.0,47,-99.99,,,-99.99,,2013-06-25 23:01:00,
2013-06-25 19:11:00,90.0,63.0,-100.00,North,5,9.0,14.0,41,-99.99,,,-99.99,,2013-06-25 23:11:00,
2013-06-25 19:34:00,90.0,64.0,-100.00,North,5,11.0,15.0,42,-99.99,,,-99.99,,2013-06-25 23:34:00,
2013-06-25 19:44:00,90.0,64.0,-100.00,North,5,11.0,15.0,42,-99.99,,,-99.99,,2013-06-25 23:44:00,
2013-06-25 20:02:00,89.0,64.0,-100.00,North,5,7.0,13.0,43,-99.99,,,-99.99,,2013-06-26 00:02:00,
2013-06-25 20:11:00,89.0,64.0,-100.00,North,5,7.0,13.0,43,-99.99,,,-99.99,,2013-06-26 00:11:00,
2013-06-25 20:22:00,88.0,65.0,-100.00,North,5,4.0,11.0,46,-99.99,,,-99.99,,2013-06-26 00:22:00,
2013-06-25 20:33:00,86.0,65.0,-100.00,North,5,5.0,9.0,49,-99.99,,,-99.99,,2013-06-26 00:33:00,
2013-06-25 20:42:00,86.0,65.0,-100.00,North,5,5.0,9.0,49,-99.99,,,-99.99,,2013-06-26 00:42:00,
2013-06-25 21:01:00,84.0,66.0,-100.00,North,5,6.0,9.0,54,-99.99,,,-99.99,,2013-06-26 01:01:00,
2013-06-25 21:11:00,84.0,66.0,-100.00,North,5,5.0,11.0,55,-99.99,,,-99.99,,2013-06-26 01:11:00,
2013-06-25 21:22:00,84.0,66.0,-100.00,North,5,5.0,11.0,55,-99.99,,,-99.99,,2013-06-26 01:22:00,
2013-06-25 21:43:00,82.0,66.0,-100.00,North,5,4.0,9.0,59,-99.99,,,-99.99,,2013-06-26 01:43:00,
2013-06-25 21:53:00,82.0,66.0,-100.00,North,5,4.0,9.0,59,-99.99,,,-99.99,,2013-06-26 01:53:00,
2013-06-25 22:02:00,82.0,67.0,-100.00,North,5,8.0,11.0,60,-99.99,,,-99.99,,2013-06-26 02:02:00,
2013-06-25 22:11:00,82.0,66.0,-100.00,North,5,7.0,10.0,60,-99.99,,,-99.99,,2013-06-26 02:11:00,
2013-06-25 22:22:00,82.0,66.0,-100.00,North,5,7.0,10.0,60,-99.99,,,-99.99,,2013-06-26 02:22:00,
2013-06-25 22:43:00,81.0,67.0,-100.00,North,5,10.0,14.0,62,-99.99,,,-99.99,,2013-06-26 02:43:00,
2013-06-25 22:53:00,81.0,67.0,-100.00,North,5,10.0,14.0,62,-99.99,,,-99.99,,2013-06-26 02:53:00,
2013-06-25 23:02:00,80.0,67.0,-100.00,North,5,10.0,14.0,64,-99.99,,,-99.99,,2013-06-26 03:02:00,
2013-06-25 23:22:00,80.0,67.0,-100.00,North,5,12.0,17.0,66,-99.99,,,-99.99,,2013-06-26 03:22:00,
2013-06-25 23:33:00,80.0,67.0,-100.00,North,5,11.0,15.0,66,-99.99,,,-99.99,,2013-06-26 03:33:00,
2013-06-25 23:43:00,80.0,67.0,-100.00,North,5,10.0,16.0,66,-99.99,,,-99.99,,2013-06-26 03:43:00,
2013-06-25 23:52:00,80.0,67.0,-100.00,North,5,10.0,16.0,66,-99.99,,,-99.99,,2013-06-26 03:52:00,